Location: Aalen
(48.8330°N, 10.1000°E)
Time: 21:37:25
(UTC+02:00)

M-CUBED/EXP-1 PRIME - Pass Details

Date: 25 September 2021
Orbit: 427 x 655 km, 101.7° (Epoch: 27 October)

Event Time Altitude Azimuth Distance (km) Brightness Sun altitude
Rises 06:02:09 0° 20° (NNE) 2,434 ? -12.0°
Reaches altitude 10° 06:04:11 10° 21° (NNE) 1,546 ? -11.7°
Maximum altitude 06:07:27 82° 108° (ESE) 439 ? -11.1°
Drops below altitude 10° 06:10:41 10° 198° (SSW) 1,523 ? -10.6°
Sets 06:12:40 0° 199° (SSW) 2,394 ? -10.3°
